Find WHDW 22-09

NORAD ID: 69580 Int'l Des: 2026-137 Owner: ZXW Country: CN Constellation: xingwang operational
LEOCIRCULAR

現在のビュー

3D地球を読み込み中...

About WHDW 22-09

WHDW 22-09 (NORAD 69580) is a xingwang constellation satellite launched Jun 17, 2026 by ZXW of CN. It operates in LEO, CIRCULAR orbit with a mass of 800.00 kg.

WHDW 22-09について

説明を読み込み中...

次回通過

Passes for default location (London). Set your location on the main map for personalized predictions.

高度履歴

Loading altitude history...

軌道要素

1 69580U 26137J 26169.59387822 -.00000117 00000-0 22795-4 0 9994
2 69580 50.0003 249.7971 0009416 232.5993 127.4051 13.92810411 224
Epoch: Jun 18, 2026 • Age: 5 hours

現在のステータス

高度 928.4 km
速度 7.39 km/s
衛星直下点 37.27°N, 86.25°E
打ち上げ日 Jun 17, 2026
運用期間 1 day
タイプ other

技術仕様

分類 Payload
質量 800.00 kg
乾燥質量 800.00 kg
総質量 800.00 kg
長さ 3.00 m
直径 1.00 m
スパン 10.00 m
形状 Box + 2 Pan
製造者 YINNT
バスタイプ Xingwang Y
フェーズステータス In Orbit
所有者/国 ZXW/CN

Most Searched